Tracking 29892 objects as of 21-Nov-2024
HD Live streaming from Space Station
objects crossing your sky now

STARLINK-31599

Track STARLINK-31599 now!
10-day predictions
STARLINK-31599 is classified as:


NORAD ID: 59327
Int'l Code: 2024-057H
Perigee: 449.8 km
Apogee: 452.6 km
Inclination: 43.0 °
Period: 93.5 minutes
Semi major axis: 6822 km
RCS: Unknown
Launch date: March 25, 2024
Source: United States (US)
Launch site: AIR FORCE EASTERN TEST RANGE (AFETR)
Your satellite tracking list
Your tracking list is empty




NASA's NSSDC Master Catalog

Two Line Element Set (TLE):
1 59327U 24057H   24325.51215007  .00001538  00000-0  44067-4 0  9993
2 59327  43.0022   8.8840 0002072 239.9501 120.1150 15.40705921 38215
Source of the keplerian elements: AFSPC